This is the latest recevied weather packets stored in our database for station/object WB3EGK. If no packets are shown the sender has not sent any weather packets the latest 1 day(s).
| Time | Temp. | Humidity | Pressure | Rain* | Wind** | Luminosity | Snow |
|---|---|---|---|---|---|---|---|
| 1778049255 | 8.89° C | 1% | 1004.9 hPa | 1.78 mm | - | 0 W/m² | - |
| 1778047439 | 9.44° C | 1% | 1004.8 hPa | 1.78 mm | - | 0 W/m² | - |
| 1778046226 | 9.44° C | 1% | 1005.3 hPa | 0 mm | - | 0 W/m² | - |
| 1778045621 | 9.44° C | 1% | 1005.2 hPa | 1.78 mm | - | 0 W/m² | - |
| 1778045319 | 9.44° C | 1% | 1005.6 hPa | 0 mm | - | 0 W/m² | - |
| 1778044715 | 9.44° C | 1% | 1005.8 hPa | 1.27 mm | - | 0 W/m² | - |
| 1778044411 | 9.44° C | 1% | 1005.7 hPa | 0 mm | - | 0 W/m² | - |
| 1778043502 | 9.44° C | 1% | 1006 hPa | 1.27 mm | - | 0 W/m² | - |
| 1778043199 | 9.44° C | 1% | 1006.1 hPa | 1.27 mm | - | 0 W/m² | - |
| 1778042896 | 9.44° C | 1% | 1006.5 hPa | 0 mm | - | 0 W/m² | - |
| 1778042594 | 9.44° C | 1% | 1006.3 hPa | 1.78 mm | - | 0 W/m² | - |
| 1778041988 | 10° C | 1% | 1006.4 hPa | 1.78 mm | - | 0 W/m² | - |
| 1778041385 | 10° C | 1% | 1006.3 hPa | 1.27 mm | - | 0 W/m² | - |
| 1778040779 | 9.44° C | 1% | 1005.9 hPa | 1.78 mm | - | 0 W/m² | - |
| 1778040477 | 9.44° C | 1% | 1005.9 hPa | 1.78 mm | - | 0 W/m² | - |
| 1778039871 | 9.44° C | 1% | 1005.6 hPa | 3.05 mm | - | 0 W/m² | - |
| 1778039568 | 9.44° C | 1% | 1005.8 hPa | 6.1 mm | - | 0 W/m² | - |
| 1778038962 | 10° C | 1% | 1006 hPa | 7.87 mm | - | 0 W/m² | - |
| 1778038659 | 10° C | 1% | 1006 hPa | 8.89 mm | - | 0 W/m² | - |
| 1778038356 | 10° C | 1% | 1006.1 hPa | 4.83 mm | - | 0 W/m² | - |
| 1778038053 | 10° C | 1% | 1005.9 hPa | 1.78 mm | - | 0 W/m² | - |
| 1778037750 | 10° C | 1% | 1005.9 hPa | 3.05 mm | - | 0 W/m² | - |
| 1778037446 | 10° C | 1% | 1005.8 hPa | 6.1 mm | - | 0 W/m² | - |
| 1778037144 | 10° C | 1% | 1006 hPa | 7.11 mm | - | 0 W/m² | - |
| 1778036842 | 10° C | 1% | 1005.9 hPa | 6.1 mm | - | 0 W/m² | - |
* Rain latest hour (hover to see other rain measurements)
** Current wind speed in m/s (hover to see current wind gust speed)